AAL725 KCLT-EIDW

Flight info

Callsign AAL725
Flight time N/A
Altitude 37000
Route BARMY5 TYI Q64 SAWED Q97 ZJAAY Q167 RIFLE DCT ACK DCT BRADD N175G PORTI/M084F400 DCT 47N050W 49N040W 51N030W 53N020W DCT MALOT DCT GISTI/N0485F410 DCT MOMIN DCT OSGAR OSGAR4L
Aircraft B772/H-SDE2E3FGHIJ5LORVWXY/LB1D1

Departure

Time 2026-05-05 09:05
Airport Charlotte Douglas International Airport (KCLT)

Arrival

Time N/A
Airport Dublin Airport (EIDW)
Time Latitude Longitude Altitude Speed Heading
2026-05-05 08:08 35.21993 -80.94015 764 ft 0 kts 357°
2026-05-05 08:54 35.21992 -80.94015 764 ft 1 kts 357°
2026-05-05 08:55 35.21977 -80.94013 764 ft 2 kts 357°
2026-05-05 08:55 35.21962 -80.94012 764 ft 2 kts 357°
2026-05-05 08:55 35.21950 -80.94012 764 ft 1 kts 357°
2026-05-05 08:55 35.21940 -80.94011 764 ft 2 kts 349°
2026-05-05 08:56 35.21927 -80.94005 764 ft 2 kts 326°
2026-05-05 08:56 35.21915 -80.93993 764 ft 2 kts 307°
2026-05-05 08:56 35.21908 -80.93977 764 ft 2 kts 288°
2026-05-05 08:56 35.21905 -80.93959 764 ft 2 kts 269°
2026-05-05 08:57 35.21907 -80.93941 764 ft 2 kts 250°
2026-05-05 08:57 35.21914 -80.93926 764 ft 1 kts 231°
2026-05-05 08:57 35.21918 -80.93919 764 ft 0 kts 227°
2026-05-05 08:59 35.21917 -80.93921 764 ft 0 kts 227°
2026-05-05 08:59 35.21914 -80.93926 764 ft 0 kts 227°
2026-05-05 09:00 35.21901 -80.93942 764 ft 4 kts 226°
2026-05-05 09:00 35.21874 -80.93949 764 ft 4 kts 159°
2026-05-05 09:00 35.21848 -80.93920 764 ft 5 kts 117°
2026-05-05 09:00 35.21855 -80.93877 764 ft 6 kts 51°
2026-05-05 09:01 35.21887 -80.93832 764 ft 7 kts 49°
2026-05-05 09:01 35.21932 -80.93771 764 ft 11 kts 49°
2026-05-05 09:01 35.21976 -80.93713 764 ft 7 kts 32°
2026-05-05 09:01 35.22029 -80.93712 764 ft 8 kts 355°
2026-05-05 09:02 35.22100 -80.93718 764 ft 12 kts 356°
2026-05-05 09:02 35.22196 -80.93726 764 ft 15 kts 356°
2026-05-05 09:02 35.22313 -80.93736 764 ft 17 kts 356°
2026-05-05 09:02 35.22428 -80.93746 764 ft 12 kts 355°
2026-05-05 09:03 35.22479 -80.93745 764 ft 6 kts 20°
2026-05-05 09:03 35.22503 -80.93694 764 ft 8 kts 81°
2026-05-05 09:03 35.22495 -80.93632 764 ft 6 kts 131°
2026-05-05 09:03 35.22451 -80.93614 764 ft 8 kts 175°
2026-05-05 09:04 35.22316 -80.93602 764 ft 37 kts 176°
2026-05-05 09:04 35.21820 -80.93564 764 ft 102 kts 176°
2026-05-05 09:04 35.20919 -80.93484 765 ft 155 kts 176°
2026-05-05 09:04 35.19765 -80.93375 1106 ft 166 kts 177°
2026-05-05 09:05 35.18653 -80.93037 1711 ft 173 kts 152°
2026-05-05 09:05 35.17899 -80.91859 2140 ft 189 kts 115°
2026-05-05 09:05 35.17833 -80.90144 2249 ft 217 kts 84°
2026-05-05 09:05 35.18134 -80.88245 2439 ft 238 kts 81°
2026-05-05 09:06 35.18481 -80.86196 2751 ft 256 kts 81°
2026-05-05 09:06 35.18856 -80.83989 3079 ft 276 kts 80°
2026-05-05 09:06 35.19258 -80.81629 3670 ft 284 kts 80°
2026-05-05 09:06 35.19659 -80.79288 4447 ft 285 kts 80°
2026-05-05 09:07 35.20063 -80.76921 5188 ft 286 kts 81°
2026-05-05 09:07 35.20472 -80.74522 5827 ft 291 kts 81°
2026-05-05 09:07 35.20885 -80.72095 6454 ft 293 kts 81°
2026-05-05 09:07 35.21296 -80.69685 7279 ft 290 kts 81°
2026-05-05 09:08 35.21702 -80.67295 7876 ft 293 kts 81°
2026-05-05 09:08 35.22121 -80.64827 8484 ft 296 kts 82°
2026-05-05 09:08 35.22535 -80.62383 9094 ft 298 kts 82°
2026-05-05 09:08 35.22776 -80.60963 9406 ft 300 kts 82°
2026-05-05 09:09 35.23196 -80.58476 9960 ft 302 kts 82°
2026-05-05 09:09 35.23624 -80.55936 10392 ft 312 kts 82°
2026-05-05 09:09 35.24075 -80.53252 10606 ft 329 kts 81°
2026-05-05 09:09 35.24548 -80.50441 10834 ft 346 kts 81°
2026-05-05 09:10 35.25048 -80.47478 11097 ft 362 kts 81°
2026-05-05 09:10 35.25554 -80.44396 11361 ft 377 kts 82°
2026-05-05 09:10 35.25968 -80.41187 11722 ft 389 kts 83°
2026-05-05 09:10 35.26386 -80.37891 12287 ft 396 kts 83°
2026-05-05 09:11 35.26817 -80.34535 13005 ft 399 kts 83°
2026-05-05 09:11 35.27245 -80.31226 13734 ft 401 kts 83°
2026-05-05 09:11 35.27683 -80.27846 14394 ft 406 kts 82°
2026-05-05 09:11 35.28133 -80.24374 15042 ft 413 kts 82°
2026-05-05 09:12 35.28582 -80.20921 15754 ft 417 kts 82°
2026-05-05 09:12 35.29037 -80.17412 16407 ft 422 kts 82°
2026-05-05 09:12 35.29500 -80.13841 17051 ft 428 kts 82°
2026-05-05 09:12 35.30018 -80.10236 17723 ft 432 kts 77°
2026-05-05 09:13 35.30915 -80.06702 18339 ft 437 kts 70°
2026-05-05 09:13 35.31930 -80.03229 18967 ft 442 kts 70°
2026-05-05 09:13 35.32975 -79.99679 19649 ft 446 kts 70°
2026-05-05 09:13 35.34028 -79.96090 20282 ft 450 kts 69°
2026-05-05 09:14 35.35089 -79.92467 20912 ft 455 kts 69°
2026-05-05 09:14 35.36160 -79.88803 21527 ft 459 kts 70°
2026-05-05 09:14 35.37241 -79.85092 22118 ft 464 kts 69°
2026-05-05 09:14 35.38327 -79.81367 22719 ft 468 kts 69°
2026-05-05 09:15 35.39423 -79.77600 23305 ft 472 kts 69°
2026-05-05 09:15 35.40537 -79.73771 23925 ft 476 kts 69°
2026-05-05 09:15 35.41592 -79.70135 24482 ft 479 kts 69°
2026-05-05 09:15 35.42712 -79.66267 25036 ft 483 kts 69°
2026-05-05 09:16 35.43851 -79.62334 25573 ft 488 kts 69°
2026-05-05 09:16 35.44983 -79.58415 26125 ft 491 kts 69°
2026-05-05 09:16 35.46140 -79.54406 26680 ft 495 kts 69°
2026-05-05 09:16 35.47290 -79.50414 27197 ft 498 kts 69°
2026-05-05 09:17 35.48447 -79.46394 27675 ft 502 kts 69°
2026-05-05 09:17 35.49497 -79.42741 28111 ft 506 kts 69°
2026-05-05 09:17 35.50577 -79.38974 28564 ft 509 kts 69°
2026-05-05 09:17 35.51767 -79.34821 29034 ft 512 kts 69°
2026-05-05 09:18 35.52947 -79.30698 29446 ft 516 kts 69°
2026-05-05 09:18 35.54132 -79.26548 29874 ft 519 kts 69°
2026-05-05 09:18 35.55324 -79.22368 30322 ft 521 kts 69°
2026-05-05 09:18 35.56515 -79.18182 30928 ft 520 kts 69°
2026-05-05 09:19 35.57708 -79.13987 31672 ft 516 kts 69°
2026-05-05 09:19 35.58888 -79.09828 32398 ft 513 kts 69°
2026-05-05 09:19 35.60057 -79.05713 33034 ft 510 kts 69°
2026-05-05 09:19 35.61220 -79.01629 33596 ft 509 kts 69°
2026-05-05 09:20 35.62375 -78.97566 34168 ft 507 kts 69°
2026-05-05 09:20 35.63441 -78.93810 34679 ft 506 kts 69°
2026-05-05 09:20 35.64586 -78.89772 35080 ft 504 kts 69°
2026-05-05 09:20 35.65177 -78.87685 35252 ft 505 kts 69°
2026-05-05 09:21 35.65290 -78.87285 35282 ft 505 kts 69°
2026-05-05 09:21 35.66015 -78.84725 35448 ft 506 kts 69°
2026-05-05 09:21 35.66948 -78.81421 35683 ft 507 kts 68°
2026-05-05 09:21 35.67948 -78.77879 35963 ft 506 kts 68°
2026-05-05 09:22 35.69057 -78.73944 36288 ft 506 kts 68°
2026-05-05 09:22 35.70135 -78.70111 36613 ft 505 kts 68°
2026-05-05 09:22 35.71188 -78.66367 36910 ft 505 kts 68°
2026-05-05 09:22 35.72357 -78.62200 37057 ft 508 kts 68°
2026-05-05 09:23 35.73513 -78.58074 37064 ft 509 kts 68°
2026-05-05 09:23 35.75658 -78.50404 37068 ft 505 kts 68°
2026-05-05 09:24 35.77964 -78.42128 37066 ft 507 kts 69°
2026-05-05 09:24 35.80228 -78.33984 37067 ft 507 kts 69°
2026-05-05 09:25 35.82472 -78.25882 37052 ft 506 kts 69°
2026-05-05 09:25 35.84724 -78.17731 37050 ft 507 kts 69°
2026-05-05 09:26 35.86999 -78.09470 37056 ft 507 kts 69°
2026-05-05 09:26 35.89249 -78.01276 37058 ft 507 kts 69°
2026-05-05 09:27 35.91497 -77.93065 37050 ft 506 kts 69°
2026-05-05 09:27 35.93745 -77.84825 37049 ft 507 kts 69°
2026-05-05 09:28 35.95785 -77.77330 37058 ft 507 kts 70°
2026-05-05 09:28 35.98748 -77.69511 37065 ft 502 kts 54°
2026-05-05 09:29 36.03187 -77.62874 37056 ft 499 kts 44°
2026-05-05 09:29 36.07901 -77.56599 37059 ft 499 kts 44°
2026-05-05 09:30 36.12583 -77.50339 37067 ft 499 kts 44°
2026-05-05 09:30 36.17303 -77.44001 37068 ft 500 kts 44°
2026-05-05 09:31 36.21997 -77.37678 37060 ft 499 kts 44°
2026-05-05 09:31 36.26681 -77.31351 37056 ft 500 kts 45°
2026-05-05 09:32 36.31402 -77.25020 37054 ft 498 kts 41°
2026-05-05 09:32 36.36512 -77.19233 37060 ft 498 kts 39°
2026-05-05 09:33 36.41582 -77.13573 37062 ft 498 kts 39°
2026-05-05 09:33 36.46737 -77.07804 37051 ft 497 kts 39°
2026-05-05 09:34 36.51861 -77.02054 37053 ft 498 kts 39°
2026-05-05 09:34 36.56990 -76.96285 37050 ft 496 kts 39°
2026-05-05 09:35 36.62126 -76.90498 37056 ft 497 kts 39°
2026-05-05 09:35 36.69785 -76.81846 37055 ft 496 kts 39°
2026-05-05 09:36 36.74382 -76.76640 37051 ft 497 kts 39°
2026-05-05 09:36 36.79375 -76.70976 37051 ft 496 kts 39°
2026-05-05 09:37 36.84466 -76.65191 37046 ft 497 kts 39°
2026-05-05 09:37 36.89571 -76.59379 37048 ft 496 kts 39°
2026-05-05 09:38 36.94655 -76.53578 37048 ft 496 kts 39°
2026-05-05 09:38 36.99762 -76.47742 37040 ft 496 kts 39°
2026-05-05 09:39 37.04848 -76.41917 37040 ft 496 kts 39°
2026-05-05 09:39 37.09916 -76.36103 37037 ft 495 kts 39°
2026-05-05 09:40 37.14939 -76.30328 37027 ft 496 kts 40°
2026-05-05 09:40 37.19753 -76.24785 37021 ft 495 kts 40°
2026-05-05 09:41 37.24119 -76.19749 37026 ft 496 kts 40°
2026-05-05 09:41 37.28442 -76.14754 37024 ft 495 kts 40°
2026-05-05 09:42 37.33324 -76.09103 37021 ft 496 kts 40°
2026-05-05 09:42 37.38171 -76.03481 37027 ft 495 kts 40°
2026-05-05 09:43 37.43235 -75.97598 37022 ft 496 kts 40°
2026-05-05 09:43 37.48275 -75.91731 37020 ft 496 kts 40°
2026-05-05 09:44 37.53426 -75.85938 37017 ft 493 kts 33°
2026-05-05 09:44 37.59204 -75.81376 37019 ft 490 kts 27°
2026-05-05 09:45 37.65082 -75.76997 37020 ft 489 kts 27°
2026-05-05 09:45 37.70904 -75.72640 37011 ft 489 kts 28°
2026-05-05 09:46 37.76757 -75.68246 37017 ft 489 kts 28°
2026-05-05 09:46 37.82599 -75.63849 37018 ft 490 kts 28°
2026-05-05 09:47 37.88362 -75.59180 37016 ft 492 kts 32°
2026-05-05 09:47 37.93970 -75.54234 37015 ft 490 kts 32°
2026-05-05 09:48 37.99577 -75.49308 37014 ft 491 kts 32°
2026-05-05 09:48 38.05173 -75.44400 37016 ft 489 kts 32°
2026-05-05 09:49 38.10696 -75.39269 37009 ft 491 kts 34°
2026-05-05 09:49 38.16167 -75.34079 37004 ft 491 kts 34°
2026-05-05 09:50 38.21656 -75.28879 36998 ft 491 kts 34°
2026-05-05 09:50 38.27057 -75.23761 36997 ft 491 kts 34°
2026-05-05 09:51 38.30139 -75.20839 36995 ft 490 kts 34°
2026-05-05 09:52 38.35538 -75.15715 36996 ft 490 kts 34°
2026-05-05 09:52 38.40990 -75.10532 36993 ft 490 kts 34°
2026-05-05 09:53 38.46225 -75.05547 36999 ft 490 kts 34°
2026-05-05 09:53 38.51498 -74.99947 36999 ft 493 kts 40°
2026-05-05 09:54 38.56679 -74.94274 37002 ft 491 kts 37°
2026-05-05 09:54 38.61961 -74.88779 36996 ft 490 kts 37°
2026-05-05 09:55 38.67231 -74.83292 36989 ft 490 kts 37°
2026-05-05 09:55 38.72525 -74.77772 36985 ft 490 kts 37°
2026-05-05 09:56 38.77707 -74.72191 36988 ft 491 kts 40°
2026-05-05 09:56 38.82735 -74.66260 36984 ft 492 kts 40°
2026-05-05 09:57 38.87780 -74.60317 36990 ft 491 kts 40°
2026-05-05 09:57 38.92802 -74.54408 36991 ft 491 kts 40°
2026-05-05 09:58 38.97919 -74.48662 36985 ft 491 kts 37°
2026-05-05 09:58 39.03161 -74.43052 36973 ft 490 kts 38°
2026-05-05 09:59 39.08397 -74.37421 36979 ft 491 kts 38°
2026-05-05 09:59 39.13662 -74.31736 36966 ft 491 kts 38°
2026-05-05 10:00 39.18867 -74.26098 36971 ft 491 kts 38°
2026-05-05 10:00 39.24126 -74.20387 36970 ft 491 kts 38°
2026-05-05 10:01 39.29336 -74.14717 36965 ft 490 kts 38°
2026-05-05 10:01 39.34232 -74.09377 36960 ft 491 kts 38°
2026-05-05 10:02 39.39486 -74.03635 36977 ft 491 kts 38°
2026-05-05 10:02 39.44690 -73.97931 36972 ft 491 kts 38°
2026-05-05 10:03 39.49889 -73.92219 36959 ft 491 kts 38°
2026-05-05 10:03 39.55094 -73.86488 36967 ft 490 kts 38°
2026-05-05 10:04 39.60260 -73.80788 36959 ft 489 kts 38°
2026-05-05 10:04 39.65468 -73.75030 36970 ft 490 kts 38°
2026-05-05 10:05 39.70632 -73.69309 36958 ft 489 kts 38°
2026-05-05 10:05 39.75792 -73.63581 36965 ft 490 kts 38°
2026-05-05 10:06 39.80977 -73.57814 36948 ft 489 kts 38°
2026-05-05 10:06 39.86116 -73.52087 36971 ft 489 kts 38°
2026-05-05 10:07 39.91289 -73.46326 36954 ft 487 kts 38°
2026-05-05 10:07 39.96417 -73.40606 36951 ft 488 kts 38°
2026-05-05 10:08 40.01556 -73.34859 36956 ft 487 kts 39°
2026-05-05 10:08 40.06713 -73.29082 36952 ft 489 kts 39°
2026-05-05 10:09 40.11867 -73.23291 36946 ft 488 kts 39°
2026-05-05 10:09 40.17006 -73.17497 36963 ft 488 kts 39°
2026-05-05 10:10 40.22122 -73.11717 36964 ft 487 kts 39°
2026-05-05 10:10 40.27249 -73.05913 36949 ft 486 kts 39°
2026-05-05 10:11 40.32365 -73.00110 36941 ft 486 kts 39°
2026-05-05 10:11 40.37474 -72.94303 36952 ft 485 kts 39°
2026-05-05 10:12 40.40253 -72.91139 36941 ft 487 kts 39°
2026-05-05 10:12 40.45134 -72.85573 36949 ft 487 kts 39°
2026-05-05 10:13 40.50267 -72.79708 36939 ft 487 kts 39°
2026-05-05 10:13 40.55347 -72.73891 36941 ft 487 kts 38°
2026-05-05 10:14 40.60441 -72.68047 36953 ft 487 kts 39°
2026-05-05 10:14 40.65459 -72.62116 36951 ft 487 kts 44°
2026-05-05 10:15 40.69417 -72.54854 36949 ft 492 kts 61°
2026-05-05 10:15 40.71864 -72.46425 36967 ft 495 kts 70°
2026-05-05 10:16 40.73971 -72.37793 36947 ft 494 kts 70°
2026-05-05 10:16 40.76058 -72.29189 36963 ft 497 kts 71°
2026-05-05 10:17 40.77860 -72.21729 36943 ft 495 kts 71°
2026-05-05 10:17 40.79144 -72.16396 36940 ft 493 kts 71°
2026-05-05 10:18 40.81146 -72.08058 36952 ft 495 kts 71°
2026-05-05 10:18 40.83217 -71.99402 36954 ft 494 kts 71°
2026-05-05 10:19 40.85263 -71.90812 36949 ft 494 kts 71°
2026-05-05 10:19 40.87310 -71.82188 36968 ft 494 kts 71°
2026-05-05 10:20 40.89371 -71.73474 36946 ft 495 kts 71°
2026-05-05 10:20 40.91409 -71.64825 36957 ft 495 kts 71°
2026-05-05 10:21 40.93449 -71.56128 36954 ft 496 kts 71°
2026-05-05 10:21 40.95460 -71.47527 36980 ft 494 kts 71°
2026-05-05 10:22 40.97466 -71.38913 36966 ft 493 kts 71°
2026-05-05 10:22 40.99465 -71.30296 36962 ft 494 kts 71°
2026-05-05 10:23 41.01484 -71.21562 36958 ft 494 kts 71°
2026-05-05 10:23 41.03482 -71.12882 36960 ft 493 kts 71°
2026-05-05 10:24 41.05465 -71.04240 36962 ft 495 kts 71°
2026-05-05 10:24 41.07453 -70.95532 36964 ft 494 kts 71°
2026-05-05 10:25 41.09439 -70.86808 36963 ft 494 kts 71°
2026-05-05 10:25 41.11428 -70.78033 36974 ft 495 kts 71°
2026-05-05 10:26 41.13392 -70.69333 36974 ft 495 kts 71°
2026-05-05 10:26 41.15347 -70.60639 36981 ft 495 kts 71°
2026-05-05 10:27 41.17304 -70.51905 36976 ft 495 kts 71°
2026-05-05 10:27 41.19251 -70.43176 36985 ft 494 kts 71°
2026-05-05 10:28 41.21202 -70.34396 36981 ft 495 kts 72°
2026-05-05 10:28 41.23143 -70.25629 36988 ft 495 kts 72°
2026-05-05 10:29 41.25065 -70.16908 36992 ft 496 kts 72°
2026-05-05 10:29 41.26797 -70.09029 36989 ft 498 kts 71°
2026-05-05 10:30 41.29044 -70.02005 36991 ft 492 kts 57°
2026-05-05 10:30 41.32994 -69.94976 37001 ft 487 kts 46°
2026-05-05 10:31 41.37446 -69.88210 36990 ft 488 kts 46°
2026-05-05 10:31 41.41680 -69.81720 36994 ft 486 kts 46°
2026-05-05 10:32 41.46036 -69.74995 36991 ft 488 kts 46°
2026-05-05 10:32 41.50460 -69.68130 36996 ft 487 kts 46°
2026-05-05 10:33 41.54881 -69.61244 36993 ft 488 kts 46°
2026-05-05 10:33 41.59269 -69.54388 36989 ft 489 kts 46°
2026-05-05 10:34 41.63675 -69.47484 36996 ft 488 kts 46°
2026-05-05 10:34 41.68059 -69.40597 36995 ft 488 kts 46°
2026-05-05 10:35 41.72323 -69.33886 36987 ft 489 kts 46°
2026-05-05 10:35 41.76697 -69.26982 36980 ft 489 kts 46°
2026-05-05 10:36 41.81100 -69.20018 36983 ft 489 kts 46°
2026-05-05 10:36 41.85465 -69.13096 36979 ft 489 kts 46°
2026-05-05 10:37 41.89861 -69.06110 36983 ft 488 kts 46°
2026-05-05 10:37 41.94237 -68.99137 36991 ft 489 kts 46°
2026-05-05 10:38 41.98631 -68.92122 36987 ft 490 kts 46°
2026-05-05 10:38 42.03004 -68.85123 36984 ft 489 kts 46°
2026-05-05 10:39 42.07365 -68.78127 36986 ft 490 kts 46°
2026-05-05 10:39 42.11717 -68.71128 36988 ft 490 kts 46°
2026-05-05 10:40 42.16092 -68.64076 36993 ft 490 kts 46°
2026-05-05 10:40 42.20245 -68.57366 36987 ft 490 kts 46°
2026-05-05 10:41 42.24606 -68.50304 36984 ft 490 kts 46°
2026-05-05 10:41 42.28855 -68.43407 36983 ft 489 kts 46°
2026-05-05 10:42 42.35432 -68.32700 36978 ft 489 kts 46°
2026-05-05 10:43 42.39775 -68.25610 36978 ft 491 kts 46°
2026-05-05 10:43 42.44094 -68.18539 36975 ft 489 kts 46°
2026-05-05 10:44 42.48434 -68.11420 36973 ft 491 kts 46°
2026-05-05 10:44 42.52759 -68.04307 36968 ft 491 kts 46°
2026-05-05 10:45 42.56997 -67.97319 36975 ft 491 kts 46°
2026-05-05 10:45 42.61344 -67.90135 36970 ft 491 kts 46°
2026-05-05 10:46 42.65645 -67.83012 36968 ft 490 kts 46°
2026-05-05 10:46 42.69965 -67.75839 36975 ft 489 kts 46°
2026-05-05 10:47 42.74265 -67.68681 36974 ft 489 kts 46°
2026-05-05 10:47 42.78551 -67.61529 36974 ft 490 kts 46°
2026-05-05 10:48 42.82863 -67.54318 36979 ft 489 kts 46°
2026-05-05 10:48 42.86942 -67.47478 36971 ft 489 kts 46°
2026-05-05 10:49 42.91122 -67.40453 36979 ft 490 kts 46°
2026-05-05 10:49 42.95423 -67.33207 36965 ft 490 kts 47°
2026-05-05 10:50 42.99717 -67.25957 36968 ft 491 kts 46°
2026-05-05 10:50 43.03941 -67.18803 36976 ft 490 kts 46°
2026-05-05 10:51 43.07631 -67.12543 36971 ft 492 kts 46°
2026-05-05 10:51 43.11903 -67.05279 36975 ft 492 kts 46°
2026-05-05 10:52 43.15631 -66.97409 36977 ft 500 kts 61°
2026-05-05 10:52 43.18400 -66.88633 36982 ft 502 kts 63°
2026-05-05 10:53 43.21081 -66.79876 36987 ft 500 kts 63°
2026-05-05 10:53 43.23695 -66.71274 36976 ft 500 kts 63°
2026-05-05 10:54 43.26356 -66.62463 36986 ft 501 kts 63°
2026-05-05 10:54 43.29006 -66.53646 36991 ft 500 kts 63°
2026-05-05 10:55 43.31659 -66.44782 36988 ft 501 kts 63°
2026-05-05 10:55 43.34280 -66.35992 36995 ft 502 kts 63°
2026-05-05 10:56 43.36928 -66.27078 36986 ft 501 kts 64°
2026-05-05 10:56 43.39542 -66.18246 36983 ft 501 kts 64°
2026-05-05 10:57 43.42163 -66.09361 36994 ft 502 kts 64°
2026-05-05 10:57 43.44766 -66.00503 36995 ft 500 kts 64°
2026-05-05 10:58 43.47366 -65.91627 36996 ft 502 kts 64°
2026-05-05 10:58 43.49966 -65.82719 37000 ft 501 kts 64°
2026-05-05 10:59 43.52553 -65.73821 36995 ft 502 kts 64°
2026-05-05 10:59 43.55129 -65.64932 36999 ft 502 kts 64°
2026-05-05 11:00 43.57712 -65.55988 36996 ft 503 kts 64°
2026-05-05 11:00 43.60296 -65.47007 37003 ft 503 kts 64°
2026-05-05 11:01 43.62867 -65.38041 37002 ft 503 kts 64°
2026-05-05 11:01 43.65434 -65.29057 37000 ft 504 kts 64°
2026-05-05 11:02 43.67986 -65.20091 37002 ft 504 kts 65°
2026-05-05 11:02 43.70549 -65.11055 36992 ft 503 kts 64°
2026-05-05 11:03 43.73092 -65.02060 36999 ft 506 kts 64°
2026-05-05 11:03 43.75626 -64.93057 36996 ft 506 kts 64°
2026-05-05 11:04 43.78175 -64.83971 36990 ft 504 kts 64°
2026-05-05 11:04 43.80702 -64.74933 36988 ft 506 kts 64°
2026-05-05 11:05 43.83192 -64.65990 36992 ft 505 kts 64°
2026-05-05 11:05 43.85701 -64.56948 36989 ft 507 kts 64°
2026-05-05 11:06 43.88209 -64.47877 36991 ft 506 kts 64°
2026-05-05 11:06 43.90718 -64.38767 36994 ft 506 kts 64°
2026-05-05 11:07 43.93210 -64.29688 36978 ft 506 kts 65°
2026-05-05 11:07 43.95716 -64.20522 36978 ft 508 kts 65°
2026-05-05 11:08 43.98195 -64.11421 36973 ft 507 kts 65°
2026-05-05 11:08 44.00680 -64.02262 36975 ft 509 kts 65°
2026-05-05 11:09 44.03167 -63.93061 36971 ft 510 kts 65°
2026-05-05 11:09 44.05641 -63.83877 36983 ft 511 kts 65°
2026-05-05 11:10 44.08119 -63.74638 36980 ft 509 kts 65°
2026-05-05 11:10 44.10586 -63.65408 37002 ft 511 kts 65°
2026-05-05 11:11 44.13050 -63.56148 37001 ft 510 kts 65°
2026-05-05 11:11 44.15509 -63.46879 37002 ft 512 kts 65°
2026-05-05 11:12 44.17948 -63.37643 37019 ft 512 kts 65°
2026-05-05 11:12 44.20403 -63.28316 37011 ft 512 kts 66°
2026-05-05 11:13 44.22838 -63.19023 36999 ft 513 kts 66°
2026-05-05 11:13 44.25270 -63.09706 37007 ft 512 kts 66°
2026-05-05 11:14 44.27682 -63.00432 37011 ft 512 kts 66°
2026-05-05 11:14 44.30100 -62.91100 37002 ft 514 kts 66°
2026-05-05 11:15 44.32517 -62.81728 37015 ft 514 kts 66°
2026-05-05 11:15 44.34929 -62.72343 36984 ft 516 kts 66°
2026-05-05 11:16 44.37335 -62.62944 37004 ft 517 kts 66°
2026-05-05 11:16 44.39720 -62.53584 36995 ft 515 kts 66°
2026-05-05 11:17 44.42113 -62.44159 37020 ft 517 kts 66°
2026-05-05 11:17 44.44510 -62.34679 37009 ft 517 kts 66°
2026-05-05 11:18 44.46892 -62.25218 37000 ft 517 kts 67°
2026-05-05 11:18 44.49263 -62.15765 37014 ft 519 kts 67°
2026-05-05 11:19 44.51644 -62.06227 36996 ft 518 kts 67°
2026-05-05 11:19 44.54000 -61.96757 37014 ft 518 kts 67°
2026-05-05 11:20 44.56369 -61.87191 37011 ft 519 kts 67°
2026-05-05 11:20 44.58705 -61.77718 37032 ft 519 kts 67°
2026-05-05 11:21 44.61066 -61.68105 37014 ft 520 kts 67°
2026-05-05 11:21 44.63402 -61.58557 37252 ft 522 kts 67°
2026-05-05 11:21 44.64581 -61.53722 37073 ft 523 kts 67°
2026-05-05 11:22 44.65733 -61.48984 37036 ft 516 kts 66°
2026-05-05 11:22 44.68044 -61.39455 37018 ft 519 kts 66°
2026-05-05 11:23 44.70365 -61.29844 37006 ft 520 kts 68°
2026-05-05 11:23 44.72657 -61.20313 37012 ft 519 kts 67°
2026-05-05 11:24 44.74959 -61.10698 37013 ft 519 kts 68°
2026-05-05 11:24 44.77258 -61.01058 37011 ft 521 kts 67°
2026-05-05 11:25 44.79538 -60.91451 37012 ft 520 kts 68°
2026-05-05 11:25 44.81805 -60.81863 37001 ft 522 kts 68°
2026-05-05 11:26 44.84088 -60.72161 37016 ft 522 kts 68°
2026-05-05 11:26 44.86357 -60.62475 37012 ft 524 kts 68°
2026-05-05 11:27 44.88635 -60.52711 37016 ft 523 kts 68°
2026-05-05 11:27 44.90897 -60.42973 37009 ft 525 kts 68°
2026-05-05 11:28 44.93147 -60.33242 37010 ft 526 kts 69°
2026-05-05 11:28 44.95401 -60.23449 37006 ft 528 kts 69°
2026-05-05 11:29 44.97649 -60.13635 37005 ft 527 kts 69°
2026-05-05 11:29 44.99898 -60.03773 36994 ft 525 kts 69°
2026-05-05 11:30 45.02124 -59.93970 37028 ft 528 kts 69°
2026-05-05 11:30 45.04349 -59.84127 37020 ft 528 kts 69°
2026-05-05 11:31 45.06561 -59.74293 37023 ft 528 kts 69°
2026-05-05 11:31 45.08781 -59.64381 37013 ft 529 kts 69°
2026-05-05 11:32 45.10979 -59.54524 37015 ft 527 kts 70°
2026-05-05 11:32 45.13177 -59.44613 37021 ft 526 kts 70°
2026-05-05 11:33 45.15348 -59.34788 37017 ft 529 kts 70°
2026-05-05 11:33 45.17529 -59.24867 37008 ft 529 kts 70°
2026-05-05 11:34 45.19683 -59.15020 37013 ft 526 kts 70°
2026-05-05 11:34 45.21847 -59.05080 37007 ft 528 kts 70°
2026-05-05 11:35 45.23990 -58.95194 37009 ft 527 kts 71°
2026-05-05 11:35 45.26141 -58.85224 37006 ft 529 kts 70°
2026-05-05 11:36 45.28274 -58.75287 37007 ft 529 kts 71°
2026-05-05 11:36 45.30397 -58.65350 37002 ft 530 kts 71°
2026-05-05 11:37 45.32514 -58.55394 37009 ft 528 kts 71°
2026-05-05 11:37 45.34624 -58.45422 37016 ft 528 kts 70°
2026-05-05 11:38 45.36729 -58.35426 37011 ft 530 kts 71°
2026-05-05 11:38 45.38828 -58.25412 36996 ft 531 kts 72°
2026-05-05 11:39 45.40922 -58.15364 36993 ft 532 kts 72°
2026-05-05 11:39 45.42995 -58.05374 36999 ft 530 kts 72°
2026-05-05 11:40 45.45078 -57.95284 37011 ft 529 kts 72°
2026-05-05 11:40 45.47140 -57.85248 36999 ft 530 kts 72°
2026-05-05 11:41 45.49199 -57.75172 36998 ft 532 kts 72°
2026-05-05 11:41 45.51251 -57.65081 36996 ft 533 kts 72°
2026-05-05 11:42 45.53289 -57.55008 37005 ft 532 kts 72°
2026-05-05 11:42 45.55329 -57.44877 37011 ft 532 kts 72°
2026-05-05 11:43 45.57344 -57.34815 37022 ft 532 kts 73°
2026-05-05 11:43 45.59364 -57.24680 37008 ft 532 kts 73°
2026-05-05 11:44 45.61381 -57.14503 37004 ft 533 kts 73°
2026-05-05 11:44 45.63380 -57.04364 37016 ft 533 kts 73°
2026-05-05 11:45 45.65362 -56.94265 37003 ft 533 kts 73°
2026-05-05 11:45 45.67354 -56.84056 37006 ft 535 kts 73°
2026-05-05 11:46 45.69331 -56.73872 36997 ft 535 kts 73°
2026-05-05 11:46 45.71308 -56.63632 37004 ft 536 kts 73°
2026-05-05 11:47 45.73278 -56.53379 36985 ft 535 kts 73°
2026-05-05 11:47 45.75237 -56.43124 36995 ft 536 kts 73°
2026-05-05 11:48 45.78158 -56.27730 36997 ft 536 kts 74°
2026-05-05 11:48 45.80089 -56.17484 36985 ft 535 kts 74°
2026-05-05 11:49 45.82014 -56.07215 36989 ft 537 kts 75°
2026-05-05 11:49 45.83937 -55.96896 36999 ft 537 kts 74°
2026-05-05 11:50 45.85848 -55.86592 37005 ft 536 kts 74°
2026-05-05 11:50 45.87750 -55.76278 37008 ft 538 kts 74°
2026-05-05 11:51 45.89644 -55.65945 37009 ft 538 kts 75°
2026-05-05 11:51 45.91531 -55.55595 37006 ft 539 kts 75°
2026-05-05 11:52 45.93412 -55.45218 37017 ft 540 kts 75°
2026-05-05 11:52 45.95283 -55.34839 37002 ft 540 kts 75°
2026-05-05 11:53 45.97152 -55.24410 37001 ft 538 kts 76°
2026-05-05 11:53 45.99003 -55.14023 36996 ft 538 kts 76°
2026-05-05 11:54 46.00835 -55.03688 37003 ft 538 kts 76°
2026-05-05 11:54 46.02673 -54.93249 37007 ft 539 kts 76°
2026-05-05 11:55 46.04495 -54.82849 37013 ft 539 kts 76°
2026-05-05 11:55 46.06311 -54.72420 37012 ft 539 kts 76°
2026-05-05 11:56 46.08113 -54.62007 37013 ft 541 kts 76°
2026-05-05 11:56 46.09918 -54.51517 37018 ft 540 kts 76°
2026-05-05 11:57 46.11708 -54.41051 37009 ft 540 kts 76°
2026-05-05 11:57 46.13486 -54.30595 37009 ft 540 kts 77°
2026-05-05 11:58 46.15260 -54.20097 37007 ft 541 kts 77°
2026-05-05 11:58 46.17032 -54.09546 37008 ft 541 kts 77°
2026-05-05 11:59 46.18787 -53.99033 37010 ft 541 kts 77°
2026-05-05 11:59 46.20528 -53.88539 37008 ft 542 kts 77°
2026-05-05 12:00 46.22273 -53.77958 37003 ft 543 kts 77°
2026-05-05 12:00 46.23998 -53.67435 36999 ft 541 kts 77°
2026-05-05 12:01 46.25714 -53.56893 37006 ft 543 kts 77°
2026-05-05 12:01 46.27424 -53.46326 37009 ft 542 kts 77°
2026-05-05 12:02 46.29133 -53.35701 36999 ft 543 kts 77°
2026-05-05 12:02 46.30680 -53.26017 37000 ft 543 kts 78°
2026-05-05 12:03 46.32376 -53.15343 37008 ft 546 kts 78°
2026-05-05 12:03 46.34063 -53.04656 37006 ft 546 kts 78°
2026-05-05 12:04 46.35728 -52.94031 37024 ft 546 kts 78°
2026-05-05 12:04 46.37391 -52.83358 37021 ft 546 kts 78°
2026-05-05 12:05 46.39048 -52.72647 37027 ft 545 kts 78°
2026-05-05 12:05 46.40693 -52.61945 37027 ft 547 kts 78°
2026-05-05 12:06 46.42330 -52.51224 37036 ft 545 kts 78°
2026-05-05 12:06 46.43948 -52.40554 37038 ft 546 kts 78°
2026-05-05 12:07 46.45556 -52.29883 37019 ft 542 kts 79°
2026-05-05 12:07 46.47146 -52.19258 37017 ft 543 kts 79°
2026-05-05 12:08 46.48743 -52.08509 37016 ft 544 kts 79°
2026-05-05 12:08 46.50328 -51.97846 37032 ft 547 kts 77°
2026-05-05 12:09 46.51480 -51.92556 37178 ft 551 kts 69°
2026-05-05 12:09 46.52881 -51.87477 37600 ft 548 kts 68°
2026-05-05 12:09 46.54303 -51.82344 38191 ft 543 kts 69°
2026-05-05 12:09 46.55671 -51.77336 38568 ft 541 kts 69°
2026-05-05 12:10 46.57039 -51.72251 38873 ft 541 kts 69°
2026-05-05 12:10 46.58390 -51.67164 39079 ft 543 kts 69°
2026-05-05 12:10 46.59732 -51.62065 39320 ft 543 kts 69°
2026-05-05 12:10 46.61072 -51.56934 39669 ft 542 kts 69°
2026-05-05 12:11 46.62386 -51.51870 39930 ft 541 kts 69°
2026-05-05 12:11 46.63708 -51.46742 40009 ft 542 kts 70°
2026-05-05 12:11 46.66326 -51.36524 40016 ft 541 kts 70°
2026-05-05 12:12 46.68937 -51.26259 40021 ft 541 kts 71°
2026-05-05 12:12 46.71526 -51.16021 40010 ft 541 kts 70°
2026-05-05 12:13 46.74102 -51.05774 40024 ft 542 kts 70°
2026-05-05 12:13 46.76675 -50.95491 40035 ft 542 kts 70°
2026-05-05 12:14 46.79248 -50.85157 40043 ft 541 kts 71°
2026-05-05 12:14 46.81792 -50.74894 40028 ft 541 kts 70°
2026-05-05 12:15 46.84329 -50.64606 40022 ft 541 kts 71°
2026-05-05 12:15 46.86851 -50.54336 40026 ft 540 kts 71°
2026-05-05 12:16 46.89375 -50.44011 40041 ft 540 kts 71°
2026-05-05 12:16 46.91891 -50.33667 40030 ft 540 kts 71°
2026-05-05 12:17 46.94387 -50.23359 40023 ft 539 kts 71°
2026-05-05 12:17 46.96862 -50.13087 40024 ft 539 kts 71°
2026-05-05 12:18 46.99332 -50.02792 40032 ft 539 kts 71°
2026-05-05 12:18 47.01864 -49.92496 40033 ft 538 kts 70°
2026-05-05 12:19 47.04469 -49.82171 40042 ft 539 kts 70°
2026-05-05 12:19 47.07040 -49.71915 40035 ft 539 kts 70°
2026-05-05 12:20 47.09602 -49.61638 40045 ft 541 kts 70°
2026-05-05 12:20 47.12163 -49.51311 40038 ft 539 kts 70°
2026-05-05 12:21 47.14714 -49.40973 40036 ft 540 kts 70°
2026-05-05 12:21 47.17240 -49.30682 40034 ft 539 kts 71°
2026-05-05 12:22 47.19769 -49.20336 40045 ft 539 kts 71°
2026-05-05 12:22 47.22281 -49.10009 40047 ft 538 kts 71°
2026-05-05 12:23 47.24788 -48.99652 40052 ft 540 kts 71°
2026-05-05 12:23 47.27280 -48.89312 40047 ft 539 kts 71°
2026-05-05 12:24 47.29763 -48.78961 40049 ft 539 kts 72°
2026-05-05 12:24 47.32247 -48.68554 40058 ft 539 kts 72°
2026-05-05 12:25 47.34716 -48.58161 40056 ft 539 kts 72°
2026-05-05 12:25 47.37170 -48.47781 40060 ft 540 kts 72°
2026-05-05 12:26 47.39627 -48.37345 40058 ft 538 kts 72°
2026-05-05 12:26 47.42064 -48.26937 40052 ft 539 kts 72°
2026-05-05 12:27 47.44490 -48.16529 40058 ft 539 kts 72°
2026-05-05 12:27 47.46915 -48.06078 40059 ft 539 kts 73°
2026-05-05 12:28 47.49316 -47.95675 40068 ft 539 kts 72°
2026-05-05 12:28 47.51724 -47.85194 40067 ft 538 kts 72°
2026-05-05 12:29 47.54104 -47.74782 40074 ft 539 kts 72°
2026-05-05 12:29 47.56496 -47.64269 40073 ft 539 kts 73°
2026-05-05 12:30 47.58855 -47.53849 40078 ft 537 kts 73°
2026-05-05 12:30 47.61210 -47.43393 40089 ft 538 kts 73°
2026-05-05 12:31 47.63564 -47.32893 40078 ft 537 kts 73°
2026-05-05 12:31 47.65907 -47.22388 40085 ft 537 kts 73°
2026-05-05 12:32 47.68225 -47.11944 40082 ft 537 kts 73°
2026-05-05 12:32 47.70545 -47.01438 40089 ft 536 kts 73°
2026-05-05 12:33 47.72845 -46.90968 40095 ft 538 kts 73°
2026-05-05 12:33 47.75156 -46.80399 40099 ft 537 kts 73°
2026-05-05 12:34 47.77439 -46.69898 40111 ft 537 kts 73°
2026-05-05 12:34 47.79722 -46.59353 40108 ft 537 kts 74°
2026-05-05 12:35 47.81984 -46.48842 40113 ft 538 kts 74°
2026-05-05 12:35 47.84259 -46.38220 40105 ft 537 kts 73°
2026-05-05 12:36 47.86503 -46.27691 40111 ft 536 kts 75°
2026-05-05 12:36 47.88739 -46.17145 40104 ft 539 kts 75°
2026-05-05 12:37 47.90977 -46.06533 40116 ft 537 kts 74°
2026-05-05 12:37 47.93200 -45.95935 40113 ft 539 kts 74°
2026-05-05 12:38 47.95364 -45.85566 40117 ft 539 kts 75°
2026-05-05 12:38 47.97575 -45.74915 40123 ft 538 kts 75°
2026-05-05 12:39 47.99769 -45.64291 40127 ft 539 kts 75°
2026-05-05 12:39 48.01949 -45.53678 40125 ft 537 kts 75°
2026-05-05 12:40 48.04131 -45.43002 40134 ft 538 kts 75°
2026-05-05 12:40 48.06297 -45.32343 40130 ft 538 kts 76°
2026-05-05 12:41 48.08442 -45.21729 40126 ft 538 kts 76°
2026-05-05 12:41 48.10582 -45.11083 40125 ft 539 kts 75°
2026-05-05 12:42 48.12716 -45.00413 40126 ft 537 kts 75°
2026-05-05 12:42 48.14837 -44.89746 40117 ft 537 kts 75°
2026-05-05 12:43 48.16952 -44.79050 40129 ft 536 kts 75°
2026-05-05 12:43 48.19054 -44.68363 40133 ft 537 kts 75°
2026-05-05 12:44 48.21153 -44.57634 40131 ft 537 kts 75°
2026-05-05 12:44 48.23233 -44.46938 40141 ft 536 kts 75°
2026-05-05 12:45 48.25291 -44.36297 40146 ft 536 kts 75°
2026-05-05 12:45 48.27351 -44.25589 40144 ft 535 kts 76°
2026-05-05 12:46 48.29399 -44.14876 40149 ft 535 kts 76°
2026-05-05 12:46 48.31430 -44.04195 40153 ft 533 kts 76°
2026-05-05 12:47 48.33443 -43.93554 40160 ft 533 kts 76°
2026-05-05 12:47 48.35446 -43.82896 40160 ft 535 kts 76°
2026-05-05 12:48 48.37452 -43.72166 40159 ft 533 kts 76°
2026-05-05 12:48 48.39449 -43.61425 40163 ft 533 kts 76°
2026-05-05 12:49 48.41416 -43.50777 40174 ft 534 kts 76°
2026-05-05 12:49 48.43387 -43.40051 40167 ft 534 kts 76°
2026-05-05 12:50 48.45347 -43.29326 40167 ft 533 kts 77°
2026-05-05 12:50 48.47293 -43.18609 40168 ft 533 kts 77°
2026-05-05 12:51 48.49241 -43.07815 40165 ft 533 kts 77°
2026-05-05 12:51 48.51168 -42.97080 40172 ft 533 kts 77°
2026-05-05 12:52 48.53087 -42.86317 40181 ft 534 kts 77°
2026-05-05 12:52 48.54984 -42.75621 40187 ft 533 kts 77°
2026-05-05 12:53 48.56885 -42.64835 40186 ft 533 kts 77°
2026-05-05 12:53 48.58772 -42.54066 40187 ft 532 kts 77°
2026-05-05 12:54 48.61571 -42.37968 40186 ft 530 kts 77°
2026-05-05 12:55 48.63428 -42.27203 40170 ft 531 kts 78°
2026-05-05 12:55 48.65272 -42.16454 40200 ft 531 kts 77°
2026-05-05 12:56 48.67101 -42.05724 40192 ft 530 kts 78°
2026-05-05 12:56 48.68924 -41.94957 40198 ft 531 kts 78°
2026-05-05 12:57 48.70750 -41.84111 40189 ft 531 kts 78°
2026-05-05 12:57 48.72548 -41.73365 40192 ft 531 kts 78°
2026-05-05 12:58 48.74354 -41.62499 40190 ft 531 kts 78°
2026-05-05 12:58 48.76129 -41.51747 40199 ft 532 kts 78°
2026-05-05 12:59 48.77907 -41.40914 40192 ft 531 kts 78°
2026-05-05 12:59 48.79675 -41.30074 40196 ft 532 kts 78°
2026-05-05 13:00 48.82307 -41.13802 40183 ft 528 kts 78°
2026-05-05 13:01 48.85774 -40.92119 40200 ft 529 kts 78°
2026-05-05 13:01 48.87479 -40.81347 40197 ft 532 kts 78°
2026-05-05 13:02 48.89193 -40.70458 40213 ft 529 kts 78°
2026-05-05 13:02 48.90890 -40.59591 40222 ft 530 kts 78°
2026-05-05 13:03 48.92572 -40.48751 40186 ft 531 kts 78°
2026-05-05 13:03 48.94255 -40.37841 40226 ft 531 kts 78°
2026-05-05 13:04 48.95923 -40.26946 40212 ft 531 kts 79°
2026-05-05 13:04 48.97584 -40.16025 40210 ft 530 kts 79°
2026-05-05 13:05 48.99218 -40.05203 40212 ft 531 kts 79°
2026-05-05 13:05 49.01031 -39.94348 40185 ft 533 kts 71°
2026-05-05 13:06 49.03784 -39.83886 40197 ft 535 kts 69°
2026-05-05 13:06 49.06536 -39.73386 40198 ft 534 kts 70°
2026-05-05 13:07 49.09225 -39.62875 40180 ft 535 kts 70°
2026-05-05 13:07 49.11874 -39.52349 40196 ft 534 kts 70°
2026-05-05 13:08 49.14491 -39.41833 40200 ft 533 kts 70°
2026-05-05 13:08 49.17097 -39.31277 40203 ft 533 kts 71°
2026-05-05 13:09 49.19690 -39.20704 40185 ft 534 kts 71°
2026-05-05 13:09 49.22261 -39.10155 40179 ft 533 kts 71°
2026-05-05 13:10 49.24829 -38.99566 40198 ft 534 kts 71°
2026-05-05 13:10 49.27391 -38.88942 40213 ft 532 kts 71°
2026-05-05 13:11 49.29945 -38.78304 40209 ft 534 kts 71°
2026-05-05 13:11 49.32487 -38.67658 40192 ft 531 kts 71°
2026-05-05 13:12 49.34994 -38.57108 40188 ft 531 kts 71°
2026-05-05 13:12 49.37500 -38.46508 40203 ft 530 kts 71°
2026-05-05 13:13 49.40007 -38.35854 40197 ft 531 kts 71°
2026-05-05 13:13 49.42487 -38.25263 40192 ft 530 kts 71°
2026-05-05 13:14 49.44952 -38.14685 40174 ft 530 kts 71°
2026-05-05 13:14 49.47421 -38.04035 40190 ft 531 kts 71°
2026-05-05 13:15 49.49883 -37.93363 40191 ft 530 kts 71°
2026-05-05 13:15 49.52327 -37.82719 40178 ft 529 kts 71°
2026-05-05 13:16 49.54756 -37.72081 40197 ft 528 kts 71°
2026-05-05 13:16 49.57168 -37.61469 40180 ft 529 kts 71°
2026-05-05 13:17 49.59575 -37.50823 40188 ft 527 kts 71°
2026-05-05 13:17 49.61961 -37.40218 40192 ft 528 kts 71°
2026-05-05 13:18 49.64358 -37.29510 40182 ft 528 kts 72°
2026-05-05 13:18 49.66726 -37.18878 40194 ft 526 kts 72°
2026-05-05 13:19 49.69079 -37.08259 40200 ft 527 kts 72°
2026-05-05 13:19 49.71422 -36.97629 40185 ft 525 kts 72°
2026-05-05 13:20 49.73762 -36.86961 40181 ft 527 kts 72°
2026-05-05 13:20 49.76098 -36.76257 40191 ft 526 kts 71°
2026-05-05 13:21 49.78414 -36.65583 40191 ft 526 kts 72°
2026-05-05 13:21 49.80725 -36.54882 40203 ft 525 kts 71°
2026-05-05 13:22 49.83025 -36.44177 40179 ft 527 kts 72°
2026-05-05 13:22 49.85305 -36.33506 40187 ft 526 kts 72°
2026-05-05 13:23 49.87582 -36.22792 40178 ft 525 kts 72°
2026-05-05 13:23 49.89849 -36.12073 40182 ft 527 kts 72°
2026-05-05 13:24 49.92117 -36.01288 40178 ft 525 kts 72°
2026-05-05 13:24 49.94354 -35.90593 40188 ft 525 kts 72°
2026-05-05 13:25 49.96596 -35.79820 40199 ft 525 kts 72°
2026-05-05 13:25 49.98817 -35.69088 40192 ft 523 kts 72°
2026-05-05 13:26 50.01025 -35.58362 40188 ft 525 kts 72°
2026-05-05 13:26 50.03228 -35.47604 40194 ft 525 kts 72°
2026-05-05 13:27 50.05423 -35.36824 40197 ft 523 kts 72°
2026-05-05 13:27 50.07597 -35.26092 40191 ft 523 kts 73°
2026-05-05 13:28 50.09765 -35.15326 40209 ft 522 kts 73°
2026-05-05 13:28 50.11927 -35.04534 40188 ft 522 kts 73°
2026-05-05 13:29 50.14073 -34.93761 40195 ft 523 kts 73°
2026-05-05 13:29 50.16201 -34.83019 40196 ft 520 kts 73°
2026-05-05 13:30 50.18317 -34.72274 40203 ft 522 kts 72°
2026-05-05 13:30 50.20432 -34.61480 40206 ft 522 kts 72°
2026-05-05 13:31 50.22519 -34.50769 40215 ft 520 kts 72°
2026-05-05 13:31 50.24608 -34.39986 40217 ft 521 kts 72°
2026-05-05 13:32 50.26682 -34.29217 40222 ft 518 kts 73°
2026-05-05 13:32 50.28744 -34.18450 40221 ft 517 kts 73°
2026-05-05 13:33 50.30789 -34.07716 40214 ft 516 kts 73°
2026-05-05 13:33 50.32807 -33.97057 40222 ft 516 kts 73°
2026-05-05 13:34 50.34836 -33.86280 40233 ft 515 kts 73°
2026-05-05 13:34 50.36836 -33.75599 40239 ft 515 kts 73°
2026-05-05 13:35 50.38841 -33.64825 40244 ft 515 kts 73°
2026-05-05 13:35 50.40825 -33.54108 40253 ft 512 kts 73°
2026-05-05 13:36 50.42790 -33.43427 40245 ft 513 kts 73°
2026-05-05 13:36 50.44745 -33.32737 40243 ft 511 kts 74°
2026-05-05 13:37 50.46694 -33.22022 40261 ft 513 kts 74°
2026-05-05 13:37 50.48620 -33.11367 40258 ft 509 kts 74°
2026-05-05 13:38 50.50547 -33.00647 40258 ft 509 kts 74°
2026-05-05 13:38 50.52452 -32.89979 40244 ft 508 kts 73°
2026-05-05 13:39 50.54340 -32.79351 40247 ft 508 kts 73°
2026-05-05 13:39 50.56215 -32.68730 40262 ft 507 kts 73°
2026-05-05 13:40 50.58087 -32.58065 40267 ft 506 kts 73°
2026-05-05 13:40 50.59942 -32.47430 40269 ft 507 kts 73°
2026-05-05 13:41 50.61789 -32.36784 40269 ft 505 kts 73°
2026-05-05 13:41 50.63624 -32.26133 40273 ft 505 kts 74°
2026-05-05 13:42 50.65445 -32.15501 40269 ft 504 kts 74°
2026-05-05 13:42 50.67249 -32.04912 40274 ft 504 kts 73°
2026-05-05 13:43 50.69043 -31.94308 40277 ft 501 kts 73°
2026-05-05 13:43 50.70824 -31.83723 40282 ft 502 kts 73°
2026-05-05 13:44 50.72599 -31.73100 40279 ft 500 kts 73°
2026-05-05 13:44 50.74358 -31.62516 40295 ft 502 kts 73°
2026-05-05 13:45 50.76100 -31.51961 40302 ft 500 kts 73°
2026-05-05 13:45 50.77844 -31.41336 40308 ft 500 kts 73°
2026-05-05 13:46 50.79566 -31.30774 40288 ft 498 kts 74°
2026-05-05 13:46 50.81273 -31.20240 40307 ft 497 kts 74°
2026-05-05 13:47 50.82964 -31.09736 40297 ft 496 kts 74°
2026-05-05 13:47 50.84648 -30.99210 40300 ft 495 kts 73°
2026-05-05 13:48 50.86313 -30.88740 40279 ft 494 kts 73°
2026-05-05 13:48 50.87974 -30.78223 40270 ft 495 kts 73°
2026-05-05 13:49 50.89639 -30.67623 40291 ft 499 kts 73°
2026-05-05 13:49 50.91299 -30.56976 40277 ft 496 kts 73°
2026-05-05 13:50 50.92930 -30.46446 40288 ft 498 kts 73°
2026-05-05 13:50 50.94564 -30.35830 40282 ft 498 kts 73°
2026-05-05 13:51 50.96185 -30.25230 40306 ft 497 kts 74°
2026-05-05 13:51 50.97799 -30.14603 40283 ft 497 kts 74°
2026-05-05 13:52 50.99404 -30.03967 40267 ft 498 kts 74°
2026-05-05 13:52 51.01264 -29.93446 40290 ft 494 kts 64°
2026-05-05 13:53 51.03933 -29.83447 40293 ft 494 kts 63°
2026-05-05 13:53 51.06554 -29.73429 40309 ft 493 kts 64°
2026-05-05 13:54 51.09048 -29.63662 40307 ft 494 kts 64°
2026-05-05 13:54 51.11349 -29.54518 40289 ft 493 kts 64°
2026-05-05 13:55 51.13870 -29.44395 40290 ft 493 kts 64°
2026-05-05 13:55 51.16372 -29.34270 40299 ft 492 kts 65°
2026-05-05 13:56 51.18861 -29.24134 40296 ft 493 kts 65°
2026-05-05 13:56 51.21328 -29.14027 40277 ft 491 kts 64°
2026-05-05 13:57 51.23781 -29.03931 40291 ft 491 kts 64°
2026-05-05 13:57 51.26229 -28.93802 40304 ft 490 kts 64°
2026-05-05 13:58 51.28660 -28.83698 40290 ft 488 kts 64°
2026-05-05 13:58 51.31076 -28.73608 40293 ft 489 kts 64°
2026-05-05 13:59 51.34688 -28.58435 40310 ft 489 kts 64°
2026-05-05 14:00 51.38298 -28.43165 40309 ft 490 kts 64°
2026-05-05 14:00 51.40676 -28.33043 40299 ft 488 kts 65°
2026-05-05 14:01 51.43052 -28.22882 40315 ft 489 kts 65°
2026-05-05 14:01 51.45421 -28.12702 40308 ft 488 kts 65°
2026-05-05 14:02 51.47783 -28.02508 40311 ft 490 kts 65°
2026-05-05 14:02 51.50138 -27.92292 40294 ft 488 kts 65°
2026-05-05 14:03 51.52470 -27.82127 40326 ft 488 kts 65°
2026-05-05 14:03 51.54805 -27.71906 40327 ft 490 kts 65°
2026-05-05 14:04 51.57132 -27.61663 40288 ft 490 kts 65°
2026-05-05 14:04 51.59457 -27.51384 40308 ft 491 kts 65°
2026-05-05 14:05 51.61783 -27.41049 40281 ft 491 kts 65°
2026-05-05 14:05 51.64099 -27.30702 40296 ft 493 kts 66°
2026-05-05 14:06 51.66402 -27.20367 40288 ft 491 kts 66°
2026-05-05 14:06 51.68697 -27.10014 40303 ft 493 kts 66°
2026-05-05 14:07 51.70995 -26.99598 40294 ft 493 kts 66°
2026-05-05 14:07 51.73271 -26.89229 40303 ft 494 kts 66°
2026-05-05 14:08 51.75553 -26.78779 40304 ft 493 kts 66°
2026-05-05 14:08 51.77822 -26.68333 40313 ft 493 kts 66°
2026-05-05 14:09 51.80068 -26.57946 40311 ft 493 kts 66°
2026-05-05 14:09 51.82304 -26.47553 40308 ft 492 kts 66°
2026-05-05 14:10 51.84552 -26.37045 40314 ft 493 kts 66°
2026-05-05 14:10 51.86766 -26.26647 40305 ft 493 kts 67°
2026-05-05 14:11 51.88990 -26.16143 40301 ft 493 kts 67°
2026-05-05 14:11 51.91188 -26.05716 40295 ft 493 kts 67°
2026-05-05 14:12 51.93296 -25.95659 40296 ft 493 kts 67°
2026-05-05 14:12 51.95474 -25.85215 40294 ft 492 kts 67°
2026-05-05 14:13 51.97653 -25.74712 40299 ft 492 kts 67°
2026-05-05 14:13 51.99813 -25.64249 40305 ft 492 kts 67°
2026-05-05 14:14 52.01970 -25.53740 40301 ft 493 kts 67°
2026-05-05 14:14 52.04124 -25.43194 40302 ft 492 kts 67°
2026-05-05 14:15 52.06256 -25.32695 40294 ft 492 kts 68°
2026-05-05 14:15 52.08376 -25.22204 40296 ft 493 kts 68°
2026-05-05 14:16 52.10499 -25.11640 40314 ft 493 kts 68°
2026-05-05 14:16 52.12622 -25.01018 40308 ft 493 kts 68°
2026-05-05 14:17 52.14719 -24.90469 40313 ft 493 kts 68°
2026-05-05 14:17 52.16811 -24.79891 40313 ft 493 kts 68°
2026-05-05 14:18 52.18895 -24.69289 40313 ft 493 kts 68°
2026-05-05 14:18 52.20975 -24.58654 40311 ft 493 kts 68°
2026-05-05 14:19 52.23036 -24.48056 40306 ft 493 kts 69°
2026-05-05 14:19 52.25093 -24.37420 40304 ft 493 kts 69°
2026-05-05 14:20 52.26965 -24.27688 40295 ft 493 kts 69°
2026-05-05 14:20 52.29002 -24.17040 40296 ft 492 kts 69°
2026-05-05 14:21 52.31024 -24.06413 40301 ft 493 kts 69°
2026-05-05 14:21 52.33031 -23.95809 40304 ft 494 kts 69°
2026-05-05 14:22 52.35048 -23.85084 40303 ft 494 kts 69°
2026-05-05 14:22 52.37029 -23.74492 40295 ft 494 kts 69°
2026-05-05 14:23 52.39026 -23.63753 40292 ft 494 kts 69°
2026-05-05 14:23 52.41011 -23.53017 40287 ft 493 kts 69°
2026-05-05 14:24 52.42978 -23.42320 40281 ft 493 kts 69°
2026-05-05 14:24 52.44955 -23.31501 40272 ft 493 kts 70°
2026-05-05 14:25 52.46867 -23.20984 40271 ft 493 kts 70°
2026-05-05 14:25 52.48807 -23.10243 40272 ft 493 kts 70°
2026-05-05 14:26 52.50660 -22.99926 40273 ft 493 kts 70°
2026-05-05 14:26 52.52584 -22.89147 40275 ft 493 kts 70°
2026-05-05 14:27 52.54506 -22.78323 40274 ft 494 kts 70°
2026-05-05 14:27 52.56401 -22.67580 40276 ft 494 kts 70°
2026-05-05 14:28 52.58306 -22.56715 40273 ft 493 kts 70°
2026-05-05 14:28 52.60194 -22.45888 40274 ft 493 kts 70°
2026-05-05 14:29 52.62065 -22.35089 40273 ft 494 kts 70°
2026-05-05 14:29 52.63935 -22.24228 40265 ft 494 kts 71°
2026-05-05 14:30 52.65791 -22.13385 40265 ft 493 kts 71°
2026-05-05 14:30 52.67603 -22.02729 40265 ft 493 kts 71°
2026-05-05 14:31 52.69445 -21.91829 40261 ft 494 kts 71°
2026-05-05 14:31 52.71265 -21.80998 40260 ft 494 kts 71°
2026-05-05 14:32 52.73089 -21.70073 40257 ft 494 kts 71°
2026-05-05 14:32 52.74700 -21.60361 40255 ft 494 kts 71°
2026-05-05 14:33 52.76459 -21.49693 40247 ft 493 kts 71°
2026-05-05 14:33 52.78237 -21.38848 40245 ft 493 kts 71°
2026-05-05 14:34 52.80019 -21.27909 40240 ft 493 kts 72°
2026-05-05 14:34 52.81778 -21.17032 40241 ft 493 kts 72°
2026-05-05 14:35 52.83006 -21.09405 40238 ft 493 kts 72°
2026-05-05 14:35 52.84737 -20.98584 40234 ft 493 kts 72°
2026-05-05 14:36 52.86482 -20.87612 40237 ft 494 kts 72°
2026-05-05 14:36 52.88029 -20.77816 40237 ft 494 kts 72°
2026-05-05 14:37 52.89753 -20.66843 40237 ft 495 kts 72°
2026-05-05 14:37 52.91463 -20.55876 40236 ft 495 kts 72°
2026-05-05 14:38 52.93110 -20.45245 40237 ft 495 kts 72°
2026-05-05 14:38 52.94810 -20.34194 40237 ft 495 kts 73°
2026-05-05 14:39 52.96493 -20.23184 40235 ft 495 kts 73°
2026-05-05 14:39 52.98083 -20.12714 40235 ft 495 kts 73°
2026-05-05 14:40 52.99577 -20.01615 40228 ft 497 kts 81°
2026-05-05 14:40 53.00033 -19.90173 40233 ft 499 kts 85°
2026-05-05 14:41 53.00337 -19.78645 40235 ft 500 kts 85°
2026-05-05 14:41 53.00594 -19.67155 40236 ft 501 kts 85°
2026-05-05 14:42 53.00821 -19.55650 40235 ft 501 kts 85°
2026-05-05 14:42 53.01026 -19.44116 40234 ft 500 kts 86°
2026-05-05 14:43 53.01215 -19.32611 40235 ft 500 kts 86°
2026-05-05 14:43 53.01389 -19.21118 40232 ft 499 kts 86°
2026-05-05 14:44 53.01551 -19.09586 40224 ft 500 kts 87°
2026-05-05 14:44 53.01700 -18.98124 40214 ft 499 kts 87°
2026-05-05 14:45 53.01838 -18.86662 40215 ft 501 kts 87°
2026-05-05 14:45 53.01965 -18.75095 40214 ft 500 kts 87°
2026-05-05 14:46 53.02080 -18.63637 40215 ft 501 kts 87°
2026-05-05 14:46 53.02185 -18.52071 40215 ft 500 kts 87°
2026-05-05 14:47 53.02278 -18.40571 40215 ft 499 kts 87°
2026-05-05 14:47 53.02359 -18.29141 40213 ft 498 kts 88°
2026-05-05 14:48 53.02430 -18.17640 40214 ft 498 kts 88°
2026-05-05 14:48 53.02489 -18.06233 40214 ft 498 kts 88°
2026-05-05 14:49 53.02537 -17.94757 40216 ft 498 kts 88°
2026-05-05 14:49 53.02575 -17.83310 40215 ft 499 kts 88°
2026-05-05 14:50 53.02602 -17.71957 40203 ft 499 kts 88°
2026-05-05 14:50 53.02617 -17.60469 40212 ft 499 kts 88°
2026-05-05 14:51 53.02622 -17.49199 40203 ft 497 kts 88°
2026-05-05 14:51 53.02615 -17.37738 40208 ft 497 kts 88°
2026-05-05 14:52 53.02598 -17.26295 40200 ft 496 kts 89°
2026-05-05 14:52 53.02570 -17.14876 40197 ft 497 kts 89°
2026-05-05 14:53 53.02531 -17.03458 40193 ft 497 kts 89°
2026-05-05 14:53 53.02481 -16.91973 40191 ft 498 kts 89°
2026-05-05 14:54 53.02419 -16.80543 40192 ft 498 kts 89°
2026-05-05 14:54 53.02347 -16.69052 40193 ft 499 kts 89°
2026-05-05 14:55 53.02263 -16.57550 40194 ft 498 kts 89°
2026-05-05 14:55 53.02169 -16.46094 40191 ft 498 kts 89°
2026-05-05 14:56 53.02063 -16.34632 40196 ft 497 kts 90°
2026-05-05 14:56 53.01947 -16.23183 40191 ft 498 kts 90°
2026-05-05 14:57 53.01820 -16.11707 40192 ft 498 kts 90°
2026-05-05 14:57 53.01681 -16.00229 40195 ft 498 kts 90°
2026-05-05 14:58 53.01531 -15.88747 40191 ft 499 kts 90°
2026-05-05 14:58 53.01370 -15.77272 40191 ft 499 kts 90°
2026-05-05 14:59 53.01205 -15.66203 40189 ft 499 kts 90°
2026-05-05 14:59 53.01076 -15.58016 40184 ft 498 kts 90°
2026-05-05 15:00 53.00918 -15.48447 40185 ft 498 kts 90°
2026-05-05 15:00 53.00684 -15.35093 40182 ft 499 kts 90°
2026-05-05 15:01 53.00472 -15.23643 40177 ft 497 kts 90°
2026-05-05 15:01 53.00251 -15.12270 40174 ft 497 kts 90°
2026-05-05 15:02 53.00017 -15.00845 40176 ft 498 kts 90°
2026-05-05 15:02 52.99984 -14.89407 40173 ft 498 kts 88°
2026-05-05 15:03 53.00041 -14.77927 40180 ft 498 kts 88°
2026-05-05 15:03 53.00076 -14.66464 40188 ft 498 kts 88°
2026-05-05 15:04 53.00094 -14.55022 40187 ft 498 kts 88°
2026-05-05 15:04 53.00098 -14.43600 40188 ft 498 kts 88°
2026-05-05 15:05 53.00079 -14.26394 40175 ft 498 kts 89°
2026-05-05 15:06 53.00052 -14.14974 40176 ft 499 kts 89°
2026-05-05 15:06 53.00013 -14.03504 40177 ft 497 kts 89°
2026-05-05 15:07 53.00206 -13.92129 40183 ft 497 kts 84°
2026-05-05 15:07 53.00753 -13.80737 40162 ft 495 kts 84°
2026-05-05 15:08 53.01266 -13.69382 40145 ft 495 kts 84°
2026-05-05 15:08 53.01750 -13.58048 40148 ft 494 kts 84°
2026-05-05 15:09 53.02215 -13.46681 40150 ft 495 kts 84°
2026-05-05 15:09 53.02663 -13.35366 40144 ft 494 kts 84°
2026-05-05 15:10 53.03097 -13.24031 40143 ft 494 kts 85°
2026-05-05 15:10 53.03520 -13.12682 40144 ft 493 kts 85°
2026-05-05 15:11 53.03934 -13.01280 40159 ft 493 kts 85°
2026-05-05 15:11 53.04333 -12.89942 40151 ft 493 kts 85°
2026-05-05 15:12 53.04721 -12.78632 40148 ft 494 kts 85°
2026-05-05 15:12 53.05099 -12.67289 40152 ft 494 kts 85°
2026-05-05 15:13 53.05467 -12.55896 40156 ft 494 kts 85°
2026-05-05 15:13 53.05823 -12.44566 40147 ft 495 kts 85°
2026-05-05 15:14 53.06170 -12.33140 40140 ft 494 kts 86°
2026-05-05 15:14 53.06504 -12.21818 40142 ft 493 kts 86°
2026-05-05 15:15 53.06827 -12.10461 40151 ft 493 kts 86°
2026-05-05 15:15 53.07140 -11.99122 40152 ft 493 kts 86°
2026-05-05 15:16 53.07441 -11.87785 40152 ft 493 kts 86°
2026-05-05 15:16 53.07733 -11.76383 40150 ft 493 kts 86°
2026-05-05 15:17 53.08015 -11.65000 40144 ft 494 kts 86°
2026-05-05 15:17 53.08285 -11.53623 40137 ft 494 kts 86°
2026-05-05 15:18 53.08542 -11.42326 40139 ft 494 kts 86°
2026-05-05 15:18 53.08791 -11.30912 40121 ft 494 kts 87°
2026-05-05 15:19 53.09029 -11.19506 40129 ft 495 kts 87°
2026-05-05 15:19 53.09255 -11.08116 40117 ft 493 kts 87°
2026-05-05 15:20 53.09471 -10.96754 40114 ft 493 kts 87°
2026-05-05 15:20 53.09674 -10.85418 40114 ft 492 kts 87°
2026-05-05 15:21 53.09869 -10.74023 40112 ft 492 kts 87°
2026-05-05 15:21 53.10052 -10.62650 40109 ft 492 kts 87°
2026-05-05 15:22 53.10223 -10.51328 40107 ft 493 kts 87°
2026-05-05 15:22 53.10384 -10.39972 40102 ft 492 kts 87°
2026-05-05 15:23 53.10534 -10.28599 40115 ft 494 kts 88°
2026-05-05 15:23 53.10674 -10.17207 40102 ft 492 kts 88°
2026-05-05 15:24 53.10802 -10.05930 40092 ft 493 kts 88°
2026-05-05 15:24 53.10920 -9.94557 40089 ft 492 kts 88°
2026-05-05 15:25 53.11026 -9.83233 40097 ft 493 kts 88°
2026-05-05 15:25 53.11123 -9.71837 40091 ft 492 kts 88°
2026-05-05 15:26 53.11208 -9.60547 40086 ft 492 kts 88°
2026-05-05 15:26 53.11283 -9.49121 40082 ft 493 kts 88°
2026-05-05 15:27 53.11290 -9.37771 40084 ft 493 kts 90°
2026-05-05 15:27 53.11075 -9.27345 40083 ft 493 kts 91°
2026-05-05 15:28 53.10818 -9.15919 40083 ft 492 kts 92°
2026-05-05 15:28 53.10553 -9.04633 40039 ft 492 kts 92°
2026-05-05 15:29 53.10274 -8.93286 40002 ft 492 kts 92°
2026-05-05 15:29 53.09983 -8.81912 39963 ft 492 kts 91°
2026-05-05 15:30 53.09684 -8.70599 39901 ft 488 kts 91°
2026-05-05 15:30 53.09544 -8.65460 39462 ft 487 kts 91°
2026-05-05 15:30 53.09388 -8.59807 38347 ft 499 kts 91°
2026-05-05 15:30 53.09225 -8.53987 37291 ft 506 kts 91°
2026-05-05 15:31 53.09060 -8.48223 36441 ft 509 kts 91°
2026-05-05 15:31 53.08888 -8.42335 35839 ft 510 kts 91°
2026-05-05 15:31 53.08715 -8.36485 34987 ft 514 kts 91°
2026-05-05 15:31 53.08537 -8.30569 33929 ft 517 kts 92°
2026-05-05 15:32 53.08354 -8.24590 32937 ft 517 kts 92°
2026-05-05 15:32 53.08232 -8.20652 32307 ft 517 kts 92°